Home   Weather   35°38'N, 85°50'W   Past weeks
Flag for USA

Past Weather in 35°38'N, 85°50'W, USA — Yesterday and Last 2 Weeks

Now
55 °F

Clear.


Feels Like: 55 °F
Forecast: 65 / 38 °F
Wind: No wind

Location: Bethany

Current Time: Oct 23, 2019 at 6:49:58 pm

Latest Report: Oct 23, 2019 at 6:15 pm


Visibility: 10 mi

Pressure: 30.16 "Hg

Humidity: 47%

Dew Point: 36 °F

Location of 35°38'N, 85°50'WLocation

Past Weather in 35°38'N, 85°50'W — Graph

°F

35°38'N, 85°50'W Temperature Yesterday

Maximum temperature yesterday: 66 °F (at 2:35 pm)
Minimum temperature yesterday: 43 °F (at 11:55 pm)
Average temperature yesterday: 57 °F

High & Low Weather Summary for the Past Weeks

 TemperatureHumidityPressure
High82 °F (Oct 10, 1:35 pm)100% (Oct 8, 8:35 pm)30.22 "Hg (Oct 8, 8:35 pm)
Low32 °F (Oct 18, 6:35 am)22% (Oct 23, 3:55 pm)29.78 "Hg (Oct 16, 4:35 am)
Average59 °F76%30.00 "Hg
* Reported Oct 8 5:15 pm — Oct 23 5:35 pm, 35°38'N, 85°50'W. Weather by CustomWeather, © 2019

Note: Actual official high and low records may vary slightly from our data, if they occured in-between our weather recording intervals... More about our weather records

Advertising

35°38'N, 85°50'W Weather History for the Previous 24 Hours

Scroll right to see more
 ConditionsComfort  
Time TempWeatherWind HumidityBarometerVisibility
5:35 pm
Wed, Oct 23
63 °FSunny.3 mph30%30.15 "Hg10 mi
5:10 pm64 °FSunny.No wind26%30.16 "Hg10 mi
4:50 pm64 °FSunny.No wind24%30.16 "Hg10 mi
4:35 pm64 °FSunny.No wind22%30.16 "Hg10 mi
4:15 pm66 °FSunny.No wind22%30.16 "Hg10 mi
3:55 pm66 °FDense fog.No wind22%30.16 "Hg1 mi
3:35 pm66 °FSunny.5 mph24%30.15 "Hg6 mi
3:15 pm66 °FSunny.No wind24%30.15 "Hg10 mi
2:55 pm66 °FSunny.6 mph24%30.15 "Hg10 mi
2:35 pm64 °FSunny.5 mph26%30.16 "Hg10 mi
2:15 pm64 °FSunny.No wind24%30.16 "Hg10 mi
1:55 pm64 °FSunny.No wind28%30.17 "Hg10 mi
1:35 pm64 °FSunny.5 mph26%30.18 "Hg10 mi
1:15 pm64 °FSunny.6 mph26%30.19 "Hg10 mi
12:55 pm63 °FSunny.No wind27%30.20 "Hg10 mi
12:35 pm61 °FSunny.No wind31%30.20 "Hg10 mi
12:15 pm61 °FSunny.No wind31%30.21 "Hg10 mi
11:55 am61 °FSunny.3 mph31%30.21 "Hg10 mi
11:35 am59 °FSunny.No wind34%30.21 "Hg10 mi
11:15 am59 °FSunny.6 mph39%30.21 "Hg10 mi
10:55 am57 °FSunny.5 mph41%30.21 "Hg10 mi
10:35 am57 °FSunny.No wind44%30.22 "Hg10 mi
10:15 am55 °FSunny.No wind51%30.21 "Hg10 mi
9:55 am54 °FSunny.No wind54%30.21 "Hg10 mi
9:35 am52 °FSunny.No wind62%30.20 "Hg10 mi
9:15 am50 °FSunny.No wind71%30.20 "Hg10 mi
8:55 am48 °FSunny.No wind76%30.19 "Hg10 mi
8:35 am46 °FSunny.No wind82%30.20 "Hg10 mi
8:15 am43 °FSunny.No wind93%30.19 "Hg10 mi
7:35 am37 °FSunny.No wind93%30.18 "Hg10 mi
7:15 am36 °FSunny.No wind100%30.18 "Hg10 mi
6:55 am37 °FClear.No wind93%30.17 "Hg10 mi
6:35 am37 °FClear.No wind93%30.17 "Hg10 mi
6:15 am37 °FClear.No wind93%30.16 "Hg10 mi
5:55 am37 °FClear.No wind93%30.15 "Hg10 mi
5:35 am37 °FClear.No wind100%30.15 "Hg10 mi
5:15 am37 °FClear.No wind100%30.14 "Hg10 mi
4:55 am37 °FClear.No wind100%30.14 "Hg10 mi
4:35 am37 °FClear.No wind100%30.14 "Hg10 mi
4:15 am39 °FClear.No wind93%30.13 "Hg10 mi
3:55 am37 °FClear.No wind100%30.12 "Hg10 mi
3:35 am39 °FClear.No wind93%30.12 "Hg10 mi
3:15 am39 °FClear.No wind100%30.11 "Hg10 mi
2:55 am39 °FClear.No wind93%30.11 "Hg10 mi
2:35 am41 °FClear.No wind93%30.11 "Hg10 mi
2:15 am41 °FClear.No wind93%30.11 "Hg10 mi
1:55 am43 °FClear.3 mph87%30.11 "Hg10 mi
1:35 am43 °FClear.5 mph87%30.11 "Hg10 mi
1:15 am43 °FClear.No wind87%30.11 "Hg10 mi
12:55 am41 °FClear.No wind93%30.10 "Hg10 mi
12:35 am43 °FClear.No wind87%30.09 "Hg10 mi
12:15 am41 °FClear.No wind93%30.09 "Hg10 mi
11:55 pm
Tue, Oct 22
43 °FClear.No wind87%30.09 "Hg10 mi
11:35 pm45 °FClear.No wind81%30.09 "Hg10 mi
11:15 pm45 °FClear.No wind81%30.10 "Hg10 mi
10:55 pm46 °FClear.No wind76%30.10 "Hg10 mi
10:35 pm48 °FClear.5 mph71%30.10 "Hg10 mi
10:15 pm48 °FClear.6 mph71%30.09 "Hg10 mi
9:55 pm48 °FClear.6 mph71%30.09 "Hg10 mi
9:35 pm50 °FClear.7 mph67%30.08 "Hg10 mi
9:15 pm50 °FClear.8 mph71%30.07 "Hg10 mi
8:55 pm50 °FClear.9 mph71%30.06 "Hg10 mi
8:35 pm50 °FPassing clouds.8 mph67%30.05 "Hg10 mi
7:55 pm52 °FClear.3 mph62%30.03 "Hg10 mi
7:15 pm54 °FClear.No wind58%30.02 "Hg10 mi
6:55 pm54 °FClear.5 mph58%30.01 "Hg10 mi
6:35 pm55 °FClear.6 mph55%30.00 "Hg10 mi
6:15 pm55 °FClear.7 mph55%29.99 "Hg10 mi
Weather by CustomWeather, © 2019

See weather overview